Regional Weather Roundup
Issued by NWS Charleston, SC

Current Version | Previous Version | Graphics & Text | Print | Product List | Glossary On
Versions: 1 2 3 4 5 6 7 8 9 10 11 12 13 14 15 16 17 18 19 20 21 22 23 24 25 26 27 28 29 30 31 32 33 34 35 36 37 38 39 40 41 42 43 44 45 46 47 48 49 50
000
ASUS42 KCHS 271913
RWRCHS

REGIONAL WEATHER ROUNDUP
NATIONAL WEATHER SERVICE CHARLESTON SC
300 PM EDT FRI MAY 27 2016

NOTE: "FAIR" INDICATES FEW OR NO CLOUDS BELOW 12,000 FEET WITH NO
SIGNIFICANT WEATHER AND/OR OBSTRUCTIONS TO VISIBILITY.

NOT ALL STATIONS ARE QUALITY CONTROLLED. USE DATA WITH CAUTION...
ESPECIALLY DEWPOINT OBSERVATIONS.

SCZ027-030-031-034>040-042>050-272000-
...SOUTHEAST SOUTH CAROLINA...

CITY           SKY/WX    TMP DP  RH WIND       PRES   REMARKS
N CHARLESTON   MOSUNNY   84  57  39 SE13G18   30.10F
WATERFRONT PRK   N/A     81  64  56 E12       30.10F
MOUNT PLEASANT FAIR      81  61  50 E7        30.12F
JOHNS ISLAND   FAIR      81  63  54 E10       30.12S
PINOPOLIS        N/A     88  54  31 E6        30.03S
MONCKS CORNER  FAIR      84  46  26 SE6G16    30.09F
SUMMERVILLE    FAIR      88  55  33 SE7       30.11S
BEAUFORT MCAS  MOSUNNY   84  63  49 MISG      30.10F
BEAUFORT ARPT  FAIR      82  59  44 E8        30.10F
HILTON HEAD IS MOSUNNY   84  64  51 NE7       30.12F
WALTERBORO     PTCLDY    88  52  29 E14       30.09F
ALLENDALE      FAIR      84  59  42 SE8       30.08S

...SOUTHERN MIDLANDS AND PEE DEE...

CITY           SKY/WX    TMP DP  RH WIND       PRES   REMARKS
GEORGETOWN     FAIR      81  61  50 SE10      30.14S
KINGSTREE      FAIR      86  54  32 E9        30.10F
ORANGEBURG     MOSUNNY   85  59  41 E10G17    30.09F
BARNWELL       FAIR      88  63  42 SE5       30.09F
AIKEN          MOCLDY    82  61  47 SE8       30.13S
MANNING        FAIR      86  57  37 SE8       30.10F
COLUMBIA       MOSUNNY   86  62  44 SE9       30.08F
SUMTER         MOSUNNY   85  62  45 E10G21    30.07F
FLORENCE       MOSUNNY   85  60  42 SE8       30.11F
MYRTLE BEACH   MOSUNNY   81  61  50 SE9       30.15F
N MYRTLE BEACH SUNNY     79  60  52 SE12      30.13F

$$

GAZ063-065-086>088-099>101-113>116-118-119-134>141-150-272000-
...SOUTHEAST GEORGIA...

CITY           SKY/WX    TMP DP  RH WIND       PRES   REMARKS
SAVANNAH ARPT  MOSUNNY   84  59  42 E13       30.10F
HUNTER AAF     MOSUNNY   82  64  54 E13G22    30.08F
FORT STEWART   MOSUNNY   84  60  43 SE6G22    30.06F
STATESBORO     SUNNY     87  61  41 SE9       30.09S
SYLVANIA       CLEAR     87  59  38 S7        30.09F
CLAXTON        FAIR      86  59  39 E7        30.08S

...CSRA...CENTRAL AND FAR SOUTHEAST GEORGIA...

CITY           SKY/WX    TMP DP  RH WIND       PRES   REMARKS
THOMSON        PTSUNNY   86  64  47 E7        30.14F
AUGUSTA-BUSH   MOSUNNY   85  63  47 VRB5      30.08F
AUGUSTA-DANIEL PTSUNNY   85  61  44 SE9       30.10F
SWAINSBORO     FAIR      86  54  32 SE13G20   30.08F
VIDALIA        MOSUNNY   86  55  35 E9        30.07F
EASTMAN        FAIR      88  55  32 SE10G25   30.09F
HAZLEHURST     FAIR      87  53  30 E3        30.06F
ALMA           PTSUNNY   83  61  47 E5        30.06F
WAYCROSS       MOSUNNY   85  62  44 SE9       30.05F
JESUP          MOCLDY    81  61  50 SE9       30.08S
BAXLEY         FAIR      88  59  37 SE7       30.06F
BRUNSWICK      PTSUNNY   86  64  48 E14       30.09F
SAINT SIMONS   MOSUNNY   81  64  56 NE14      30.08F

$$

SCZ027-028-034-036>038-045-046-048>050-GAZ119-141-272000-
...LAKE AND SUPPLEMENTAL COASTAL OBSERVATIONS...

STATION/POSITION TIME  TEMP    WIND        PRES    WAVE   SWELL
                       AIR SEA DIR/SP/G            HT/PER HT/PER/DIR
                 (UTC) (F)     (DEG/KT/KT) (MB)    (FT/S) (FT/S/D)
WINYAH BAY       NOT AVBL
LAKE MURRAY      1800   84      CALM  /  1 1019.0F
ACE BASIN NERRS  NOT AVBL
FORT PULASKI     1800   76 77   80/ 12/ 15 1020.2F
SAPELO ISLAND    1800   82      80/ 10     1019.0F

$$

ANZ835-935-AMZ111-154-330-350-352-354-370-450-454-472-272000-
...C-MAN AND BUOY OBSERVATIONS...

STATION/POSITION TIME  TEMP    WIND        PRES    WAVE   SWELL
                       AIR SEA DIR/SP/G            HT/PER HT/PER/DIR
                 (UTC) (F)     (DEG/KT/KT) (MB)    (FT/S) (FT/S/D)
BUOY 41004       1850   76 77   40/ 14/ 16 1019.1F   3/ 7   2/ 7
BUOY 41008       1850   76 77   60/ 14/ 16 1018.7F   3/ 6   2/120/ 7
FOLLY BEACH CMAN 1900   79      70/ 11/ 13 1020.3F
CAPERS NEARSHORE 1808   76 77   70/ 10/ 14 1020.0F
FRIPP NEARSHORE  1808   76 77   70/ 12/ 16 1019.3F


STATION/POSITION TIME  TEMP    WIND        PRES    WAVE   SWELL
                       AIR SEA DIR/SP/G            HT/PER HT/PER/DIR
                 (UTC) (F)     (DEG/KT/KT) (MB)    (FT/S) (FT/S/D)
5E ST. MARYS GA  1801      78                N/A     3/ 6
FRYING PAN BUOY  1800   76 76   60/ 10/ 12 1020.4F
BUOY 41025       1850   76 79  130/ 12/ 16 1021.1F   2/ 8   2/130/ 8
CAPE LOOKOUT NC  1800   76      90/  7/  8 1020.9F
BUOY 41002       1850   77 78   70/ 19/ 21 1018.2F   4/ 5   2/110/ 9
BUOY 41010       1820   77 78   50/ 17/ 19 1016.4F
ST AUGUSTINE FL  1900   78 80   80/ 10/ 11 1018.5F


$$




USA.gov is the U.S. government's official web portal to all federal, state and local government web resources and services.